When you browse on this site, cookies collect data to enhance your experience and personalize the content and advertising you see.
Visit our Privacy Policy to learn more. By continuing to use the site, you agree to this use of cookies and data.
  • In Spain
  • List of Countries
  • For 7 days
  • Water Temperature
  • Satellite Maps
  • Weather Map
  • Weather Widgets
  • user-avatar
    Login

    Hourly Weather Idlib

    Today, 18 February, Monday

    Time Temperature Precipitation Wind Pressure Humidity
    00:00 +7°C° 0 mm 1 mps 726 mmHg 91%
    01:00 +7°C° 0 mm 1 mps 725 mmHg 91%
    02:00 +7°C° 0 mm 1 mps 725 mmHg 92%
    03:00 +7°C° 0 mm 1 mps 725 mmHg 92%
    04:00 +6°C° 0 mm 1 mps 725 mmHg 92%
    05:00 +6°C° 0 mm 1 mps 725 mmHg 92%
    06:00 +7°C° 0 mm 1 mps 725 mmHg 89%
    07:00 +8°C° 0 mm 1 mps 725 mmHg 87%
    08:00 +9°C° 0 mm 1 mps 725 mmHg 84%
    09:00 +10°C° 0 mm 1 mps 725 mmHg 77%
    10:00 +11°C° 0 mm 1 mps 725 mmHg 70%
    11:00 +12°C° 0 mm 2 mps 725 mmHg 63%
    12:00 +13°C° 0 mm 2 mps 725 mmHg 61%
    13:00 +13°C° 0 mm 3 mps 725 mmHg 59%
    14:00 +13°C° 0 mm 4 mps 724 mmHg 57%
    15:00 +12°C° 0 mm 4 mps 724 mmHg 62%
    16:00 +11°C° 0 mm 4 mps 724 mmHg 68%
    17:00 +10°C° 0 mm 3 mps 724 mmHg 73%
    18:00 +9°C° 0 mm 3 mps 724 mmHg 78%
    19:00 +8°C° 0 mm 3 mps 724 mmHg 82%
    20:00 +8°C° 0 mm 3 mps 724 mmHg 87%
    21:00 +7°C° 0 mm 3 mps 725 mmHg 88%
    22:00 +7°C° 0 mm 3 mps 725 mmHg 90%
    23:00 +7°C° 0 mm 3 mps 725 mmHg 91%

    Tomorrow, 19 February, Tuesday

    Time Temperature Precipitation Wind Pressure Humidity
    00:00 +7°C° 0 mm 3 mps 725 mmHg 92%
    01:00 +7°C° 0 mm 2 mps 725 mmHg 92%
    02:00 +7°C° 0 mm 2 mps 725 mmHg 93%
    03:00 +7°C° 0 mm 2 mps 725 mmHg 93%
    04:00 +7°C° 0 mm 2 mps 725 mmHg 93%
    05:00 +7°C° 0 mm 2 mps 725 mmHg 93%
    06:00 +8°C° 0 mm 3 mps 725 mmHg 90%
    07:00 +9°C° 0 mm 3 mps 725 mmHg 87%
    08:00 +10°C° 0 mm 4 mps 726 mmHg 84%
    09:00 +10°C° 0 mm 5 mps 726 mmHg 78%
    10:00 +11°C° 0 mm 6 mps 726 mmHg 71%
    11:00 +14°C° 0 mm 7 mps 726 mmHg 64%
    12:00 +14°C° 0 mm 7 mps 726 mmHg 63%
    13:00 +13°C° 0 mm 8 mps 726 mmHg 63%
    14:00 +13°C° 0 mm 8 mps 725 mmHg 62%
    15:00 +12°C° 0 mm 7 mps 725 mmHg 66%
    16:00 +11°C° 0 mm 6 mps 725 mmHg 71%
    17:00 +10°C° 0 mm 5 mps 725 mmHg 76%
    18:00 +10°C° 0 mm 4 mps 726 mmHg 80%
    19:00 +8°C° 0 mm 4 mps 726 mmHg 85%
    20:00 +8°C° 0 mm 3 mps 726 mmHg 89%
    21:00 +8°C° 0 mm 3 mps 726 mmHg 90%
    22:00 +8°C° 0 mm 2 mps 727 mmHg 90%
    23:00 +8°C° 0 mm 2 mps 727 mmHg 91%

    Day after tomorrow, 20 February, Wednesday

    Time Temperature Precipitation Wind Pressure Humidity
    00:00 +8°C° 0 mm 2 mps 727 mmHg 92%
    01:00 +7°C° 0 mm 2 mps 727 mmHg 92%
    02:00 +8°C° 0 mm 1 mps 727 mmHg 93%
    03:00 +8°C° 0 mm 1 mps 726 mmHg 93%
    04:00 +8°C° 0 mm 1 mps 726 mmHg 94%
    05:00 +7°C° 0 mm 1 mps 726 mmHg 94%
    06:00 +8°C° 0 mm 1 mps 727 mmHg 92%
    07:00 +9°C° 0 mm 1 mps 727 mmHg 90%
    08:00 +10°C° 0 mm 1 mps 728 mmHg 87%
    09:00 +12°C° 0 mm 1 mps 728 mmHg 80%
    10:00 +13°C° 0 mm 1 mps 728 mmHg 72%
    11:00 +14°C° 0 mm 1 mps 728 mmHg 65%
    12:00 +15°C° 0.3 mm 1 mps 728 mmHg 62%
    13:00 +15°C° 0.3 mm 2 mps 727 mmHg 60%
    14:00 +16°C° 0.3 mm 2 mps 727 mmHg 57%
    15:00 +15°C° 0.3 mm 2 mps 727 mmHg 62%
    16:00 +13°C° 0.3 mm 3 mps 727 mmHg 67%
    17:00 +12°C° 0.3 mm 3 mps 727 mmHg 72%
    18:00 +12°C° 0 mm 2 mps 727 mmHg 77%
    19:00 +10°C° 0 mm 2 mps 727 mmHg 81%
    20:00 +9°C° 0 mm 2 mps 728 mmHg 86%
    21:00 +9°C° 0 mm 2 mps 728 mmHg 87%
    22:00 +9°C° 0 mm 1 mps 728 mmHg 89%
    23:00 +9°C° 0 mm 1 mps 728 mmHg 90%

    21 February, Thursday

    Time Temperature Precipitation Wind Pressure Humidity
    00:00 +9°C° 0 mm 1 mps 727 mmHg 91%
    01:00 +9°C° 0 mm 1 mps 727 mmHg 91%
    02:00 +8°C° 0 mm 1 mps 727 mmHg 92%
    03:00 +8°C° 0 mm 1 mps 727 mmHg 92%
    04:00 +7°C° 0 mm 0 mps 727 mmHg 93%
    05:00 +7°C° 0 mm 0 mps 727 mmHg 93%
    06:00 +8°C° 0 mm 0 mps 727 mmHg 90%
    07:00 +9°C° 0 mm 1 mps 728 mmHg 87%
    08:00 +10°C° 0 mm 1 mps 728 mmHg 84%
    09:00 +11°C° 0.2 mm 1 mps 728 mmHg 79%
    10:00 +12°C° 0.2 mm 1 mps 728 mmHg 74%
    11:00 +13°C° 0.2 mm 1 mps 728 mmHg 69%
    12:00 +13°C° 0.6 mm 2 mps 728 mmHg 71%
    13:00 +13°C° 0.6 mm 2 mps 727 mmHg 72%
    14:00 +12°C° 0.6 mm 3 mps 727 mmHg 74%
    15:00 +12°C° 0.2 mm 2 mps 727 mmHg 76%
    16:00 +12°C° 0.2 mm 2 mps 727 mmHg 78%
    17:00 +10°C° 0.2 mm 2 mps 727 mmHg 81%
    18:00 +11°C° 0 mm 1 mps 727 mmHg 83%
    19:00 +10°C° 0 mm 1 mps 727 mmHg 85%
    20:00 +10°C° 0 mm 1 mps 727 mmHg 88%
    21:00 +9°C° 0 mm 1 mps 727 mmHg 89%
    22:00 +9°C° 0 mm 1 mps 728 mmHg 90%
    23:00 +8°C° 0 mm 1 mps 728 mmHg 91%

    22 February, Friday

    Time Temperature Precipitation Wind Pressure Humidity
    00:00 +8°C° 0 mm 1 mps 727 mmHg 91%
    01:00 +8°C° 0 mm 1 mps 727 mmHg 91%
    02:00 +8°C° 0 mm 1 mps 727 mmHg 92%
    03:00 +7°C° 0 mm 1 mps 727 mmHg 92%
    04:00 +7°C° 0 mm 1 mps 727 mmHg 92%
    05:00 +7°C° 0 mm 1 mps 727 mmHg 92%
    06:00 +8°C° 0 mm 1 mps 727 mmHg 89%
    07:00 +8°C° 0 mm 0 mps 727 mmHg 86%
    08:00 +9°C° 0 mm 0 mps 727 mmHg 84%
    09:00 +10°C° 0 mm 0 mps 727 mmHg 77%
    10:00 +12°C° 0 mm 1 mps 727 mmHg 70%
    11:00 +14°C° 0 mm 1 mps 727 mmHg 64%
    12:00 +14°C° 0.2 mm 1 mps 727 mmHg 61%
    13:00 +14°C° 0.2 mm 1 mps 726 mmHg 59%
    14:00 +15°C° 0.2 mm 2 mps 726 mmHg 56%
    15:00 +14°C° 0.2 mm 2 mps 726 mmHg 61%
    16:00 +13°C° 0.2 mm 2 mps 725 mmHg 67%
    17:00 +13°C° 0.2 mm 2 mps 725 mmHg 72%
    18:00 +12°C° 0 mm 2 mps 726 mmHg 77%
    19:00 +10°C° 0 mm 2 mps 726 mmHg 81%
    20:00 +9°C° 0 mm 2 mps 726 mmHg 86%
    21:00 +8°C° 0 mm 2 mps 726 mmHg 88%
    22:00 +9°C° 0 mm 1 mps 726 mmHg 89%
    23:00 +9°C° 0 mm 1 mps 726 mmHg 90%

    23 February, Saturday

    Time Temperature Precipitation Wind Pressure Humidity
    00:00 +8°C° 0 mm 1 mps 725 mmHg 91%
    01:00 +8°C° 0 mm 1 mps 725 mmHg 92%
    02:00 +7°C° 0 mm 1 mps 725 mmHg 93%
    03:00 +7°C° 0 mm 1 mps 725 mmHg 93%
    04:00 +7°C° 0 mm 1 mps 724 mmHg 93%
    05:00 +6°C° 0 mm 0 mps 724 mmHg 93%
    06:00 +8°C° 0 mm 1 mps 724 mmHg 89%
    07:00 +9°C° 0 mm 1 mps 725 mmHg 85%
    08:00 +10°C° 0 mm 1 mps 725 mmHg 82%
    09:00 +11°C° 0.1 mm 1 mps 725 mmHg 75%
    10:00 +12°C° 0.1 mm 1 mps 724 mmHg 69%
    11:00 +13°C° 0.1 mm 1 mps 724 mmHg 63%
    12:00 +14°C° 0.6 mm 1 mps 724 mmHg 62%
    13:00 +14°C° 0.6 mm 2 mps 723 mmHg 61%
    14:00 +14°C° 0.6 mm 2 mps 722 mmHg 60%
    15:00 +13°C° 0.5 mm 2 mps 722 mmHg 65%
    16:00 +13°C° 0.5 mm 2 mps 722 mmHg 70%
    17:00 +12°C° 0.5 mm 2 mps 721 mmHg 75%
    18:00 +10°C° 0.2 mm 2 mps 721 mmHg 78%
    19:00 +11°C° 0.2 mm 1 mps 721 mmHg 81%
    20:00 +10°C° 0.2 mm 1 mps 721 mmHg 84%
    21:00 +10°C° 0 mm 1 mps 721 mmHg 86%
    22:00 +10°C° 0 mm 1 mps 721 mmHg 87%
    23:00 +8°C° 0 mm 0 mps 720 mmHg 88%
    Show more